{"data":{"norad_id":53318,"epoch":"2026-05-25T00:01:40.895328Z","epoch_age_seconds":71393,"freshness":"FRESH","line1":"1 53318U 22088C   26145.00116777  .00007881  00000+0  31437-3 0  9991","line2":"2 53318  34.9896 354.9035 0011527 176.3367 183.7434 15.24396958212804","mean_motion":15.24396958,"eccentricity":0.0011527,"inclination_deg":34.9896,"raan_deg":354.9035,"arg_perigee_deg":176.3367,"mean_anomaly_deg":183.7434,"bstar":0.00031437,"rev_number":21280,"period_min":94.463583940057,"perigee_km":484.67695489501,"apogee_km":500.51674471235,"semimajor_km":6870.7338498037,"source":"CELESTRAK","updated_at":"2026-05-25T13:37:58.151749Z"}}